Weather Roundup
Issued by NWS Chicago, IL

Home | Current Version | Previous Version | Graphics & Text | Print | Product List | Glossary On
Versions: 1 2 3 4 5 6 7 8 9 10 11 12 13 14 15 16 17 18 19 20 21 22 23 24 25 26 27 28 29 30 31 32 33 34 35 36 37 38 39 40 41 42 43 44 45 46 47 48 49 50
000
NZUS59 KLOT 292158
HRRLOT

CHICAGO AREA WEATHER ROUNDUP
NATIONAL WEATHER SERVICE CHICAGO/ROMEOVILLE IL
500 PM CDT FRI AUG 29 2014

NOTE: "FAIR" INDICATES FEW OR NO CLOUDS BELOW 12,000 FEET WITH NO
SIGNIFICANT WEATHER AND/OR OBSTRUCTIONS TO VISIBILITY.

* THESE STATIONS ARE NOT UNDER NWS QUALITY CONTROL. THEY ALSO MAY NOT
  REPORT WEATHER SUCH AS PRECIPITATION OR FOG.

ILZ005-006-012>014-019>023-292300-
NORTHEAST ILLINOIS

CITY           SKY/WX    TMP DP  RH WIND       PRES   REMARKS
OHARE          MOSUNNY   86  69  56 S14       29.88F HX  90
MIDWAY         PTSUNNY   87  72  60 S13       29.89S HX  93
AURORA         SUNNY     85  71  63 SE15      29.88S HX  90
WAUKEGAN       PTSUNNY   78  71  79 SE12      29.88S HX  80
DUPAGE AIRPORT MOSUNNY   86  71  60 S12       29.88S HX  91
WHEELING       MOSUNNY   87  71  58 S15       29.89S HX  93
NORTHERLY IS     N/A     79  69  71 SE12        N/A  HX  81
$$

WIZ051-052-058>065-066-070>072-292300-
SOUTHEAST WISCONSIN

CITY           SKY/WX    TMP DP  RH WIND       PRES   REMARKS
MILWAUKEE      CLOUDY    78  71  79 S16       29.87F HX  80
WAUKESHA       PTSUNNY   79  72  78 SE12G17   29.87F HX  82
$$

INZ001>003-010>013-019-020-292300-
NORTHWEST INDIANA

CITY           SKY/WX    TMP DP  RH WIND       PRES   REMARKS
GARY*          PTSUNNY   82  73  74 SE9       29.92F HX  88
MICHIGAN CITY* NOT AVBL
RENSSELAER*    NOT AVBL
$$

LMZ740>746-292300-
SOUTHERN LAKE MICHIGAN

STATION/POSITION TIME  SKY/WX   TEMP WIND        PRES    VSBY
                                AIR  DIR/SP/G
                 (UTC)          (F)  (DEG/KT/KT) (MB)    (MI)
HARRISON CRIB    2100            77  140/ 17/ 20   N/A
BURNHAM HARBOR   2100            77  120/ 12       N/A
CALUMET HARBOR   2100            79  130/  4/  5 1011.8F
BURNS HARBOR     NOT AVBL
MICHIGAN CITY    2100            79  130/ 13/ 18   N/A
$$

ABBREVIATIONS USED IN REMARKS
   TC - TEMPERATURE IN CELSIUS
  WCI - WIND CHILL INDEX
   HX - HEAT INDEX
  VSB - VISIBILITY
$$


USA.gov is the U.S. government's official web portal to all federal, state and local government web resources and services.